owner,sensor,date,latitude,longitude,air_temperature,qcFlag 
DISL,ioos:station:DISL:BSCA:1,2017-05-01T00:00:00Z,30.3288,-87.8293,21.37,1111122 
DISL,ioos:station:DISL:BSCA:1,2017-05-01T00:30:00Z,30.3288,-87.8293,21.17,1111122 
DISL,ioos:station:DISL:BSCA:1,2017-05-01T01:00:00Z,30.3288,-87.8293,21.27,1111122 
DISL,ioos:station:DISL:BSCA:1,2017-05-01T01:30:00Z,30.3288,-87.8293,23.06,1111122 
DISL,ioos:station:DISL:BSCA:1,2017-05-01T02:00:00Z,30.3288,-87.8293,24.76,1111122 
DISL,ioos:station:DISL:BSCA:1,2017-05-01T02:30:00Z,30.3288,-87.8293,24.76,1111122 
DISL,ioos:station:DISL:BSCA:1,2017-05-01T03:00:00Z,30.3288,-87.8293,24.49,1111122 
DISL,ioos:station:DISL:BSCA:1,2017-05-01T03:30:00Z,30.3288,-87.8293,24.66,1111122 
DISL,ioos:station:DISL:BSCA:1,2017-05-01T04:00:00Z,30.3288,-87.8293,24.66,1111122 
DISL,ioos:station:DISL:BSCA:1,2017-05-01T04:30:00Z,30.3288,-87.8293,25.2,1111122 
DISL,ioos:station:DISL:BSCA:1,2017-05-01T05:00:00Z,30.3288,-87.8293,25.13,1111122 
DISL,ioos:station:DISL:BSCA:1,2017-05-01T05:30:00Z,30.3288,-87.8293,25.13,1111122 
DISL,ioos:station:DISL:BSCA:1,2017-05-01T06:00:00Z,30.3288,-87.8293,25.2,1111122 
DISL,ioos:station:DISL:BSCA:1,2017-05-01T06:30:00Z,30.3288,-87.8293,24.79,1111122 
DISL,ioos:station:DISL:BSCA:1,2017-05-01T07:00:00Z,30.3288,-87.8293,23.74,1111122 
DISL,ioos:station:DISL:BSCA:1,2017-05-01T07:30:00Z,30.3288,-87.8293,24.83,1111122 
DISL,ioos:station:DISL:BSCA:1,2017-05-01T08:00:00Z,30.3288,-87.8293,24.89,1111122 
DISL,ioos:station:DISL:BSCA:1,2017-05-01T08:30:00Z,30.3288,-87.8293,24.93,1111122 
DISL,ioos:station:DISL:BSCA:1,2017-05-01T09:00:00Z,30.3288,-87.8293,18.22,1111122 
DISL,ioos:station:DISL:BSCA:1,2017-05-01T09:30:00Z,30.3288,-87.8293,17.3,1111122 
DISL,ioos:station:DISL:BSCA:1,2017-05-01T10:00:00Z,30.3288,-87.8293,18.23,1111122 
DISL,ioos:station:DISL:BSCA:1,2017-05-01T10:30:00Z,30.3288,-87.8293,17.53,1111122 
DISL,ioos:station:DISL:BSCA:1,2017-05-01T11:00:00Z,30.3288,-87.8293,17.12,1111122 
DISL,ioos:station:DISL:BSCA:1,2017-05-01T11:30:00Z,30.3288,-87.8293,17.56,1111122 
DISL,ioos:station:DISL:BSCA:1,2017-05-01T12:00:00Z,30.3288,-87.8293,17.53,1111122 
DISL,ioos:station:DISL:BSCA:1,2017-05-01T12:30:00Z,30.3288,-87.8293,17.36,1111122 
DISL,ioos:station:DISL:BSCA:1,2017-05-01T13:00:00Z,30.3288,-87.8293,18.51,1111122 
DISL,ioos:station:DISL:BSCA:1,2017-05-01T13:30:00Z,30.3288,-87.8293,19.08,1111122 
DISL,ioos:station:DISL:BSCA:1,2017-05-01T14:00:00Z,30.3288,-87.8293,18.98,1111122 
DISL,ioos:station:DISL:BSCA:1,2017-05-01T14:30:00Z,30.3288,-87.8293,19.05,1111122 
DISL,ioos:station:DISL:BSCA:1,2017-05-01T15:00:00Z,30.3288,-87.8293,19.48,1111122 
DISL,ioos:station:DISL:BSCA:1,2017-05-01T15:30:00Z,30.3288,-87.8293,19.99,1111122 
DISL,ioos:station:DISL:BSCA:1,2017-05-01T16:00:00Z,30.3288,-87.8293,20.66,1111122 
DISL,ioos:station:DISL:BSCA:1,2017-05-01T16:30:00Z,30.3288,-87.8293,21.47,1111122 
DISL,ioos:station:DISL:BSCA:1,2017-05-01T17:00:00Z,30.3288,-87.8293,21.47,1111122 
DISL,ioos:station:DISL:BSCA:1,2017-05-01T17:30:00Z,30.3288,-87.8293,21.67,1111122 
DISL,ioos:station:DISL:BSCA:1,2017-05-01T18:00:00Z,30.3288,-87.8293,22.28,1111122 
DISL,ioos:station:DISL:BSCA:1,2017-05-01T18:30:00Z,30.3288,-87.8293,22.25,1111122 
DISL,ioos:station:DISL:BSCA:1,2017-05-01T19:00:00Z,30.3288,-87.8293,22.72,1111122 
DISL,ioos:station:DISL:BSCA:1,2017-05-01T19:30:00Z,30.3288,-87.8293,23.5,1111122 
DISL,ioos:station:DISL:BSCA:1,2017-05-01T20:00:00Z,30.3288,-87.8293,23.83,1111122 
DISL,ioos:station:DISL:BSCA:1,2017-05-01T20:30:00Z,30.3288,-87.8293,23.65,1111122 
DISL,ioos:station:DISL:BSCA:1,2017-05-01T21:00:00Z,30.3288,-87.8293,23.89,1111122 
DISL,ioos:station:DISL:BSCA:1,2017-05-01T21:30:00Z,30.3288,-87.8293,24.5,1111122 
DISL,ioos:station:DISL:BSCA:1,2017-05-01T22:00:00Z,30.3288,-87.8293,24.43,1111122 
DISL,ioos:station:DISL:BSCA:1,2017-05-01T22:30:00Z,30.3288,-87.8293,24.02,1111122 
DISL,ioos:station:DISL:BSCA:1,2017-05-01T23:00:00Z,30.3288,-87.8293,23.82,1111122 
DISL,ioos:station:DISL:BSCA:1,2017-05-01T23:30:00Z,30.3288,-87.8293,23.82,1111122 
DISL,ioos:station:DISL:BSCA:1,2017-05-02T00:00:00Z,30.3288,-87.8293,23.86,1111122 
DISL,ioos:station:DISL:BSCA:1,2017-05-02T00:30:00Z,30.3288,-87.8293,23.43,1111122 
DISL,ioos:station:DISL:BSCA:1,2017-05-02T01:00:00Z,30.3288,-87.8293,23.3,1111122 
DISL,ioos:station:DISL:BSCA:1,2017-05-02T01:30:00Z,30.3288,-87.8293,23.5,1111122 
DISL,ioos:station:DISL:BSCA:1,2017-05-02T02:00:00Z,30.3288,-87.8293,23.61,1111122 
DISL,ioos:station:DISL:BSCA:1,2017-05-02T02:30:00Z,30.3288,-87.8293,23.67,1111122 
DISL,ioos:station:DISL:BSCA:1,2017-05-02T03:00:00Z,30.3288,-87.8293,23.74,1111122 
DISL,ioos:station:DISL:BSCA:1,2017-05-02T03:30:00Z,30.3288,-87.8293,23.57,1111122 
DISL,ioos:station:DISL:BSCA:1,2017-05-02T04:00:00Z,30.3288,-87.8293,23.57,1111122 
DISL,ioos:station:DISL:BSCA:1,2017-05-02T04:30:00Z,30.3288,-87.8293,23.4,1111122 
DISL,ioos:station:DISL:BSCA:1,2017-05-02T05:00:00Z,30.3288,-87.8293,23.47,1111122 
DISL,ioos:station:DISL:BSCA:1,2017-05-02T05:30:00Z,30.3288,-87.8293,23.67,1111122 
DISL,ioos:station:DISL:BSCA:1,2017-05-02T06:00:00Z,30.3288,-87.8293,23.67,1111122 
DISL,ioos:station:DISL:BSCA:1,2017-05-02T06:30:00Z,30.3288,-87.8293,22.62,1111122 
DISL,ioos:station:DISL:BSCA:1,2017-05-02T07:00:00Z,30.3288,-87.8293,20.25,1111122 
DISL,ioos:station:DISL:BSCA:1,2017-05-02T07:30:00Z,30.3288,-87.8293,19.64,1111122 
DISL,ioos:station:DISL:BSCA:1,2017-05-02T08:00:00Z,30.3288,-87.8293,19.82,1111122 
DISL,ioos:station:DISL:BSCA:1,2017-05-02T08:30:00Z,30.3288,-87.8293,20.06,1111122 
DISL,ioos:station:DISL:BSCA:1,2017-05-02T09:00:00Z,30.3288,-87.8293,19.96,1111122 
DISL,ioos:station:DISL:BSCA:1,2017-05-02T09:30:00Z,30.3288,-87.8293,19.93,1111122 
DISL,ioos:station:DISL:BSCA:1,2017-05-02T10:00:00Z,30.3288,-87.8293,19.73,1111122 
DISL,ioos:station:DISL:BSCA:1,2017-05-02T10:30:00Z,30.3288,-87.8293,18.92,1111122 
DISL,ioos:station:DISL:BSCA:1,2017-05-02T11:00:00Z,30.3288,-87.8293,18.81,1111122 
DISL,ioos:station:DISL:BSCA:1,2017-05-02T11:30:00Z,30.3288,-87.8293,18.85,1111122 
DISL,ioos:station:DISL:BSCA:1,2017-05-02T12:00:00Z,30.3288,-87.8293,20.07,1111122 
DISL,ioos:station:DISL:BSCA:1,2017-05-02T12:30:00Z,30.3288,-87.8293,20.68,1111122 
DISL,ioos:station:DISL:BSCA:1,2017-05-02T13:00:00Z,30.3288,-87.8293,21.48,1111122 
DISL,ioos:station:DISL:BSCA:1,2017-05-02T13:30:00Z,30.3288,-87.8293,22.52,1111122 
DISL,ioos:station:DISL:BSCA:1,2017-05-02T14:00:00Z,30.3288,-87.8293,23.3,1111122 
DISL,ioos:station:DISL:BSCA:1,2017-05-02T14:30:00Z,30.3288,-87.8293,24.05,1111122 
DISL,ioos:station:DISL:BSCA:1,2017-05-02T15:00:00Z,30.3288,-87.8293,23.94,1111122 
DISL,ioos:station:DISL:BSCA:1,2017-05-02T15:30:00Z,30.3288,-87.8293,24.1,1111122 
DISL,ioos:station:DISL:BSCA:1,2017-05-02T16:00:00Z,30.3288,-87.8293,24.5,1111122 
DISL,ioos:station:DISL:BSCA:1,2017-05-02T16:30:00Z,30.3288,-87.8293,24.7,1111122 
DISL,ioos:station:DISL:BSCA:1,2017-05-02T17:00:00Z,30.3288,-87.8293,24.8,1111122 
DISL,ioos:station:DISL:BSCA:1,2017-05-02T17:30:00Z,30.3288,-87.8293,24.97,1111122 
DISL,ioos:station:DISL:BSCA:1,2017-05-02T18:00:00Z,30.3288,-87.8293,25.04,1111122 
DISL,ioos:station:DISL:BSCA:1,2017-05-02T18:30:00Z,30.3288,-87.8293,25.18,1111122 
DISL,ioos:station:DISL:BSCA:1,2017-05-02T19:00:00Z,30.3288,-87.8293,24.84,1111122 
DISL,ioos:station:DISL:BSCA:1,2017-05-02T19:30:00Z,30.3288,-87.8293,24.91,1111122 
DISL,ioos:station:DISL:BSCA:1,2017-05-02T20:00:00Z,30.3288,-87.8293,24.77,1111122 
DISL,ioos:station:DISL:BSCA:1,2017-05-02T20:30:00Z,30.3288,-87.8293,24.77,1111122 
DISL,ioos:station:DISL:BSCA:1,2017-05-02T21:00:00Z,30.3288,-87.8293,24.87,1111122 
DISL,ioos:station:DISL:BSCA:1,2017-05-02T21:30:00Z,30.3288,-87.8293,24.77,1111122 
DISL,ioos:station:DISL:BSCA:1,2017-05-02T22:00:00Z,30.3288,-87.8293,24.87,1111122 
DISL,ioos:station:DISL:BSCA:1,2017-05-02T22:30:00Z,30.3288,-87.8293,24.91,1111122 
DISL,ioos:station:DISL:BSCA:1,2017-05-02T23:00:00Z,30.3288,-87.8293,24.97,1111122 
DISL,ioos:station:DISL:BSCA:1,2017-05-02T23:30:00Z,30.3288,-87.8293,25.04,1111122 
DISL,ioos:station:DISL:BSCA:1,2017-05-03T00:00:00Z,30.3288,-87.8293,24.84,1111122 
DISL,ioos:station:DISL:BSCA:1,2017-05-03T00:30:00Z,30.3288,-87.8293,24.64,1111122 
DISL,ioos:station:DISL:BSCA:1,2017-05-03T01:00:00Z,30.3288,-87.8293,24.48,1111122 
DISL,ioos:station:DISL:BSCA:1,2017-05-03T01:30:00Z,30.3288,-87.8293,24.42,1111122 
DISL,ioos:station:DISL:BSCA:1,2017-05-03T02:00:00Z,30.3288,-87.8293,24.42,1111122 
DISL,ioos:station:DISL:BSCA:1,2017-05-03T02:30:00Z,30.3288,-87.8293,24.42,1111122 
DISL,ioos:station:DISL:BSCA:1,2017-05-03T03:00:00Z,30.3288,-87.8293,24.38,1111122 
DISL,ioos:station:DISL:BSCA:1,2017-05-03T03:30:00Z,30.3288,-87.8293,24.25,1111122 
DISL,ioos:station:DISL:BSCA:1,2017-05-03T04:00:00Z,30.3288,-87.8293,24.18,1111122 
DISL,ioos:station:DISL:BSCA:1,2017-05-03T04:30:00Z,30.3288,-87.8293,24.28,1111122 
DISL,ioos:station:DISL:BSCA:1,2017-05-03T05:00:00Z,30.3288,-87.8293,24.25,1111122 
DISL,ioos:station:DISL:BSCA:1,2017-05-03T05:30:00Z,30.3288,-87.8293,24.15,1111122 
DISL,ioos:station:DISL:BSCA:1,2017-05-03T06:00:00Z,30.3288,-87.8293,24.15,1111122 
DISL,ioos:station:DISL:BSCA:1,2017-05-03T06:30:00Z,30.3288,-87.8293,24.11,1111122 
DISL,ioos:station:DISL:BSCA:1,2017-05-03T07:00:00Z,30.3288,-87.8293,24.05,1111122 
DISL,ioos:station:DISL:BSCA:1,2017-05-03T07:30:00Z,30.3288,-87.8293,21.98,1111122 
DISL,ioos:station:DISL:BSCA:1,2017-05-03T08:00:00Z,30.3288,-87.8293,20.39,1111122 
DISL,ioos:station:DISL:BSCA:1,2017-05-03T08:30:00Z,30.3288,-87.8293,20.49,1111122 
DISL,ioos:station:DISL:BSCA:1,2017-05-03T09:00:00Z,30.3288,-87.8293,20.33,1111122 
DISL,ioos:station:DISL:BSCA:1,2017-05-03T09:30:00Z,30.3288,-87.8293,19.69,1111122 
DISL,ioos:station:DISL:BSCA:1,2017-05-03T10:00:00Z,30.3288,-87.8293,19.59,1111122 
DISL,ioos:station:DISL:BSCA:1,2017-05-03T10:30:00Z,30.3288,-87.8293,19.52,1111122 
DISL,ioos:station:DISL:BSCA:1,2017-05-03T11:00:00Z,30.3288,-87.8293,19.76,1111122 
DISL,ioos:station:DISL:BSCA:1,2017-05-03T11:30:00Z,30.3288,-87.8293,20.14,1111122 
DISL,ioos:station:DISL:BSCA:1,2017-05-03T12:00:00Z,30.3288,-87.8293,20.0,1111122 
DISL,ioos:station:DISL:BSCA:1,2017-05-03T12:30:00Z,30.3288,-87.8293,20.51,1111122 
DISL,ioos:station:DISL:BSCA:1,2017-05-03T13:00:00Z,30.3288,-87.8293,21.27,1111122 
DISL,ioos:station:DISL:BSCA:1,2017-05-03T13:30:00Z,30.3288,-87.8293,22.76,1111122 
DISL,ioos:station:DISL:BSCA:1,2017-05-03T14:00:00Z,30.3288,-87.8293,23.5,1111122 
DISL,ioos:station:DISL:BSCA:1,2017-05-03T14:30:00Z,30.3288,-87.8293,24.28,1111122 
DISL,ioos:station:DISL:BSCA:1,2017-05-03T15:00:00Z,30.3288,-87.8293,24.79,1111122 
DISL,ioos:station:DISL:BSCA:1,2017-05-03T15:30:00Z,30.3288,-87.8293,25.09,1111122 
DISL,ioos:station:DISL:BSCA:1,2017-05-03T16:00:00Z,30.3288,-87.8293,24.98,1111122 
DISL,ioos:station:DISL:BSCA:1,2017-05-03T16:30:00Z,30.3288,-87.8293,25.31,1111122 
DISL,ioos:station:DISL:BSCA:1,2017-05-03T17:00:00Z,30.3288,-87.8293,25.08,1111122 
DISL,ioos:station:DISL:BSCA:1,2017-05-03T17:30:00Z,30.3288,-87.8293,25.01,1111122 
DISL,ioos:station:DISL:BSCA:1,2017-05-03T18:00:00Z,30.3288,-87.8293,25.18,1111122 
DISL,ioos:station:DISL:BSCA:1,2017-05-03T18:30:00Z,30.3288,-87.8293,25.21,1111122 
DISL,ioos:station:DISL:BSCA:1,2017-05-03T19:00:00Z,30.3288,-87.8293,24.97,1111122 
DISL,ioos:station:DISL:BSCA:1,2017-05-03T19:30:00Z,30.3288,-87.8293,24.81,1111122 
DISL,ioos:station:DISL:BSCA:1,2017-05-03T20:00:00Z,30.3288,-87.8293,24.27,1111122 
DISL,ioos:station:DISL:BSCA:1,2017-05-03T20:30:00Z,30.3288,-87.8293,24.41,1111122 
DISL,ioos:station:DISL:BSCA:1,2017-05-03T21:00:00Z,30.3288,-87.8293,24.21,1111122 
DISL,ioos:station:DISL:BSCA:1,2017-05-03T21:30:00Z,30.3288,-87.8293,24.32,1111122 
DISL,ioos:station:DISL:BSCA:1,2017-05-03T22:00:00Z,30.3288,-87.8293,23.61,1111122 
DISL,ioos:station:DISL:BSCA:1,2017-05-03T22:30:00Z,30.3288,-87.8293,20.79,1111122 
DISL,ioos:station:DISL:BSCA:1,2017-05-03T23:00:00Z,30.3288,-87.8293,20.63,1111122 
DISL,ioos:station:DISL:BSCA:1,2017-05-03T23:30:00Z,30.3288,-87.8293,19.72,1111122 
DISL,ioos:station:DISL:BSCA:1,2017-05-04T00:00:00Z,30.3288,-87.8293,20.17,1111122 
DISL,ioos:station:DISL:BSCA:1,2017-05-04T00:30:00Z,30.3288,-87.8293,20.24,1111122 
DISL,ioos:station:DISL:BSCA:1,2017-05-04T01:00:00Z,30.3288,-87.8293,21.39,1111122 
DISL,ioos:station:DISL:BSCA:1,2017-05-04T01:30:00Z,30.3288,-87.8293,22.36,1111122 
DISL,ioos:station:DISL:BSCA:1,2017-05-04T02:00:00Z,30.3288,-87.8293,22.22,1111122 
DISL,ioos:station:DISL:BSCA:1,2017-05-04T02:30:00Z,30.3288,-87.8293,23.0,1111122 
DISL,ioos:station:DISL:BSCA:1,2017-05-04T03:00:00Z,30.3288,-87.8293,23.81,1111122 
DISL,ioos:station:DISL:BSCA:1,2017-05-04T03:30:00Z,30.3288,-87.8293,22.86,1111122 
DISL,ioos:station:DISL:BSCA:1,2017-05-04T04:00:00Z,30.3288,-87.8293,21.27,1111122 
DISL,ioos:station:DISL:BSCA:1,2017-05-04T04:30:00Z,30.3288,-87.8293,20.05,1111122 
DISL,ioos:station:DISL:BSCA:1,2017-05-04T05:00:00Z,30.3288,-87.8293,19.48,1111122 
DISL,ioos:station:DISL:BSCA:1,2017-05-04T05:30:00Z,30.3288,-87.8293,18.1,1111122 
DISL,ioos:station:DISL:BSCA:1,2017-05-04T06:00:00Z,30.3288,-87.8293,18.47,1111122 
DISL,ioos:station:DISL:BSCA:1,2017-05-04T06:30:00Z,30.3288,-87.8293,16.81,1111122 
DISL,ioos:station:DISL:BSCA:1,2017-05-04T07:00:00Z,30.3288,-87.8293,16.61,1111122 
DISL,ioos:station:DISL:BSCA:1,2017-05-04T07:30:00Z,30.3288,-87.8293,16.0,1111122 
DISL,ioos:station:DISL:BSCA:1,2017-05-04T08:00:00Z,30.3288,-87.8293,15.69,1111122 
DISL,ioos:station:DISL:BSCA:1,2017-05-04T08:30:00Z,30.3288,-87.8293,15.77,1111122 
DISL,ioos:station:DISL:BSCA:1,2017-05-04T09:00:00Z,30.3288,-87.8293,16.21,1111122 
DISL,ioos:station:DISL:BSCA:1,2017-05-04T09:30:00Z,30.3288,-87.8293,16.96,1111122 
DISL,ioos:station:DISL:BSCA:1,2017-05-04T10:00:00Z,30.3288,-87.8293,16.51,1111122 
DISL,ioos:station:DISL:BSCA:1,2017-05-04T10:30:00Z,30.3288,-87.8293,17.19,1111122 
DISL,ioos:station:DISL:BSCA:1,2017-05-04T11:00:00Z,30.3288,-87.8293,17.49,1111122 
DISL,ioos:station:DISL:BSCA:1,2017-05-04T11:30:00Z,30.3288,-87.8293,17.46,1111122 
DISL,ioos:station:DISL:BSCA:1,2017-05-04T12:00:00Z,30.3288,-87.8293,18.64,1111122 
DISL,ioos:station:DISL:BSCA:1,2017-05-04T12:30:00Z,30.3288,-87.8293,19.46,1111122 
DISL,ioos:station:DISL:BSCA:1,2017-05-04T13:00:00Z,30.3288,-87.8293,20.68,1111122 
DISL,ioos:station:DISL:BSCA:1,2017-05-04T13:30:00Z,30.3288,-87.8293,21.25,1111122 
DISL,ioos:station:DISL:BSCA:1,2017-05-04T14:00:00Z,30.3288,-87.8293,21.54,1111122 
DISL,ioos:station:DISL:BSCA:1,2017-05-04T14:30:00Z,30.3288,-87.8293,21.88,1111122 
DISL,ioos:station:DISL:BSCA:1,2017-05-04T15:00:00Z,30.3288,-87.8293,22.45,1111122 
DISL,ioos:station:DISL:BSCA:1,2017-05-04T15:30:00Z,30.3288,-87.8293,23.23,1111122 
DISL,ioos:station:DISL:BSCA:1,2017-05-04T16:00:00Z,30.3288,-87.8293,23.78,1111122 
DISL,ioos:station:DISL:BSCA:1,2017-05-04T16:30:00Z,30.3288,-87.8293,23.4,1111122 
DISL,ioos:station:DISL:BSCA:1,2017-05-04T17:00:00Z,30.3288,-87.8293,22.56,1111122 
DISL,ioos:station:DISL:BSCA:1,2017-05-04T17:30:00Z,30.3288,-87.8293,22.08,1111122 
DISL,ioos:station:DISL:BSCA:1,2017-05-04T18:00:00Z,30.3288,-87.8293,22.01,1111122 
DISL,ioos:station:DISL:BSCA:1,2017-05-04T18:30:00Z,30.3288,-87.8293,22.18,1111122 
DISL,ioos:station:DISL:BSCA:1,2017-05-04T19:00:00Z,30.3288,-87.8293,22.15,1111122 
DISL,ioos:station:DISL:BSCA:1,2017-05-04T19:30:00Z,30.3288,-87.8293,23.23,1111122 
DISL,ioos:station:DISL:BSCA:1,2017-05-04T20:00:00Z,30.3288,-87.8293,20.18,1111122 
DISL,ioos:station:DISL:BSCA:1,2017-05-04T20:30:00Z,30.3288,-87.8293,20.73,1111122 
DISL,ioos:station:DISL:BSCA:1,2017-05-04T21:00:00Z,30.3288,-87.8293,20.35,1111122 
DISL,ioos:station:DISL:BSCA:1,2017-05-04T21:30:00Z,30.3288,-87.8293,19.17,1111122 
DISL,ioos:station:DISL:BSCA:1,2017-05-04T22:00:00Z,30.3288,-87.8293,18.96,1111122 
DISL,ioos:station:DISL:BSCA:1,2017-05-04T22:30:00Z,30.3288,-87.8293,19.4,1111122 
DISL,ioos:station:DISL:BSCA:1,2017-05-04T23:00:00Z,30.3288,-87.8293,19.57,1111122 
DISL,ioos:station:DISL:BSCA:1,2017-05-04T23:30:00Z,30.3288,-87.8293,19.2,1111122 
DISL,ioos:station:DISL:BSCA:1,2017-05-05T00:00:00Z,30.3288,-87.8293,18.05,1111122 
DISL,ioos:station:DISL:BSCA:1,2017-05-05T00:30:00Z,30.3288,-87.8293,17.42,1111122 
DISL,ioos:station:DISL:BSCA:1,2017-05-05T01:00:00Z,30.3288,-87.8293,17.32,1111122 
DISL,ioos:station:DISL:BSCA:1,2017-05-05T01:30:00Z,30.3288,-87.8293,17.08,1111122 
DISL,ioos:station:DISL:BSCA:1,2017-05-05T02:00:00Z,30.3288,-87.8293,16.85,1111122 
DISL,ioos:station:DISL:BSCA:1,2017-05-05T02:30:00Z,30.3288,-87.8293,16.2,1111122 
DISL,ioos:station:DISL:BSCA:1,2017-05-05T03:00:00Z,30.3288,-87.8293,15.97,1111122 
DISL,ioos:station:DISL:BSCA:1,2017-05-05T03:30:00Z,30.3288,-87.8293,15.39,1111122 
DISL,ioos:station:DISL:BSCA:1,2017-05-05T04:00:00Z,30.3288,-87.8293,14.99,1111122 
DISL,ioos:station:DISL:BSCA:1,2017-05-05T04:30:00Z,30.3288,-87.8293,14.93,1111122 
DISL,ioos:station:DISL:BSCA:1,2017-05-05T05:00:00Z,30.3288,-87.8293,14.73,1111122 
DISL,ioos:station:DISL:BSCA:1,2017-05-05T05:30:00Z,30.3288,-87.8293,14.53,1111122 
DISL,ioos:station:DISL:BSCA:1,2017-05-05T06:00:00Z,30.3288,-87.8293,15.07,1111122 
DISL,ioos:station:DISL:BSCA:1,2017-05-05T06:30:00Z,30.3288,-87.8293,14.32,1111122 
DISL,ioos:station:DISL:BSCA:1,2017-05-05T07:00:00Z,30.3288,-87.8293,13.95,1111122 
DISL,ioos:station:DISL:BSCA:1,2017-05-05T07:30:00Z,30.3288,-87.8293,14.05,1111122 
DISL,ioos:station:DISL:BSCA:1,2017-05-05T08:00:00Z,30.3288,-87.8293,13.92,1111122 
DISL,ioos:station:DISL:BSCA:1,2017-05-05T08:30:00Z,30.3288,-87.8293,14.05,1111122 
DISL,ioos:station:DISL:BSCA:1,2017-05-05T09:00:00Z,30.3288,-87.8293,13.75,1111122 
DISL,ioos:station:DISL:BSCA:1,2017-05-05T09:30:00Z,30.3288,-87.8293,14.19,1111122 
DISL,ioos:station:DISL:BSCA:1,2017-05-05T10:00:00Z,30.3288,-87.8293,14.19,1111122 
DISL,ioos:station:DISL:BSCA:1,2017-05-05T10:30:00Z,30.3288,-87.8293,14.46,1111122 
DISL,ioos:station:DISL:BSCA:1,2017-05-05T11:00:00Z,30.3288,-87.8293,14.9,1111122 
DISL,ioos:station:DISL:BSCA:1,2017-05-05T11:30:00Z,30.3288,-87.8293,15.14,1111122 
DISL,ioos:station:DISL:BSCA:1,2017-05-05T12:00:00Z,30.3288,-87.8293,15.65,1111122 
DISL,ioos:station:DISL:BSCA:1,2017-05-05T12:30:00Z,30.3288,-87.8293,15.27,1111122 
DISL,ioos:station:DISL:BSCA:1,2017-05-05T13:00:00Z,30.3288,-87.8293,15.54,1111122 
DISL,ioos:station:DISL:BSCA:1,2017-05-05T13:30:00Z,30.3288,-87.8293,15.37,1111122 
DISL,ioos:station:DISL:BSCA:1,2017-05-05T14:00:00Z,30.3288,-87.8293,16.04,1111122 
DISL,ioos:station:DISL:BSCA:1,2017-05-05T14:30:00Z,30.3288,-87.8293,16.88,1111122 
DISL,ioos:station:DISL:BSCA:1,2017-05-05T15:00:00Z,30.3288,-87.8293,17.15,1111122 
DISL,ioos:station:DISL:BSCA:1,2017-05-05T15:30:00Z,30.3288,-87.8293,17.46,1111122 
DISL,ioos:station:DISL:BSCA:1,2017-05-05T16:00:00Z,30.3288,-87.8293,17.59,1111122 
DISL,ioos:station:DISL:BSCA:1,2017-05-05T16:30:00Z,30.3288,-87.8293,17.59,1111122 
DISL,ioos:station:DISL:BSCA:1,2017-05-05T17:00:00Z,30.3288,-87.8293,17.63,1111122 
DISL,ioos:station:DISL:BSCA:1,2017-05-05T17:30:00Z,30.3288,-87.8293,17.8,1111122 
DISL,ioos:station:DISL:BSCA:1,2017-05-05T18:00:00Z,30.3288,-87.8293,18.13,1111122 
DISL,ioos:station:DISL:BSCA:1,2017-05-05T18:30:00Z,30.3288,-87.8293,18.0,1111122 
DISL,ioos:station:DISL:BSCA:1,2017-05-05T19:00:00Z,30.3288,-87.8293,18.17,1111122 
DISL,ioos:station:DISL:BSCA:1,2017-05-05T19:30:00Z,30.3288,-87.8293,17.99,1111122 
DISL,ioos:station:DISL:BSCA:1,2017-05-05T20:00:00Z,30.3288,-87.8293,18.36,1111122 
DISL,ioos:station:DISL:BSCA:1,2017-05-05T20:30:00Z,30.3288,-87.8293,19.07,1111122 
DISL,ioos:station:DISL:BSCA:1,2017-05-05T21:00:00Z,30.3288,-87.8293,19.14,1111122 
DISL,ioos:station:DISL:BSCA:1,2017-05-05T21:30:00Z,30.3288,-87.8293,19.51,1111122 
DISL,ioos:station:DISL:BSCA:1,2017-05-05T22:00:00Z,30.3288,-87.8293,20.22,1111122 
DISL,ioos:station:DISL:BSCA:1,2017-05-05T22:30:00Z,30.3288,-87.8293,21.06,1111122 
DISL,ioos:station:DISL:BSCA:1,2017-05-05T23:00:00Z,30.3288,-87.8293,21.37,1111122 
DISL,ioos:station:DISL:BSCA:1,2017-05-05T23:30:00Z,30.3288,-87.8293,21.4,1111122 
DISL,ioos:station:DISL:BSCA:1,2017-05-06T00:00:00Z,30.3288,-87.8293,21.34,1111122 
DISL,ioos:station:DISL:BSCA:1,2017-05-06T00:30:00Z,30.3288,-87.8293,20.86,1111122 
DISL,ioos:station:DISL:BSCA:1,2017-05-06T01:00:00Z,30.3288,-87.8293,21.03,1111122 
DISL,ioos:station:DISL:BSCA:1,2017-05-06T01:30:00Z,30.3288,-87.8293,20.49,1111122 
DISL,ioos:station:DISL:BSCA:1,2017-05-06T02:00:00Z,30.3288,-87.8293,20.26,1111122 
DISL,ioos:station:DISL:BSCA:1,2017-05-06T02:30:00Z,30.3288,-87.8293,20.19,1111122 
DISL,ioos:station:DISL:BSCA:1,2017-05-06T03:00:00Z,30.3288,-87.8293,20.06,1111122 
DISL,ioos:station:DISL:BSCA:1,2017-05-06T03:30:00Z,30.3288,-87.8293,19.45,1111122 
DISL,ioos:station:DISL:BSCA:1,2017-05-06T04:00:00Z,30.3288,-87.8293,19.19,1111122 
DISL,ioos:station:DISL:BSCA:1,2017-05-06T04:30:00Z,30.3288,-87.8293,18.75,1111122 
DISL,ioos:station:DISL:BSCA:1,2017-05-06T05:00:00Z,30.3288,-87.8293,18.54,1111122 
DISL,ioos:station:DISL:BSCA:1,2017-05-06T05:30:00Z,30.3288,-87.8293,18.58,1111122 
DISL,ioos:station:DISL:BSCA:1,2017-05-06T06:00:00Z,30.3288,-87.8293,18.58,1111122 
DISL,ioos:station:DISL:BSCA:1,2017-05-06T06:30:00Z,30.3288,-87.8293,18.44,1111122 
DISL,ioos:station:DISL:BSCA:1,2017-05-06T07:00:00Z,30.3288,-87.8293,18.34,1111122 
DISL,ioos:station:DISL:BSCA:1,2017-05-06T07:30:00Z,30.3288,-87.8293,18.17,1111122 
DISL,ioos:station:DISL:BSCA:1,2017-05-06T08:00:00Z,30.3288,-87.8293,18.14,1111122 
DISL,ioos:station:DISL:BSCA:1,2017-05-06T08:30:00Z,30.3288,-87.8293,18.24,1111122 
DISL,ioos:station:DISL:BSCA:1,2017-05-06T09:00:00Z,30.3288,-87.8293,18.17,1111122 
DISL,ioos:station:DISL:BSCA:1,2017-05-06T09:30:00Z,30.3288,-87.8293,17.15,1111122 
DISL,ioos:station:DISL:BSCA:1,2017-05-06T10:00:00Z,30.3288,-87.8293,16.41,1111122 
DISL,ioos:station:DISL:BSCA:1,2017-05-06T10:30:00Z,30.3288,-87.8293,16.2,1111122 
DISL,ioos:station:DISL:BSCA:1,2017-05-06T11:00:00Z,30.3288,-87.8293,16.14,1111122 
DISL,ioos:station:DISL:BSCA:1,2017-05-06T11:30:00Z,30.3288,-87.8293,16.63,1111122 
DISL,ioos:station:DISL:BSCA:1,2017-05-06T12:00:00Z,30.3288,-87.8293,16.15,1111122 
DISL,ioos:station:DISL:BSCA:1,2017-05-06T12:30:00Z,30.3288,-87.8293,16.62,1111122 
DISL,ioos:station:DISL:BSCA:1,2017-05-06T13:00:00Z,30.3288,-87.8293,17.19,1111122 
DISL,ioos:station:DISL:BSCA:1,2017-05-06T13:30:00Z,30.3288,-87.8293,17.42,1111122 
DISL,ioos:station:DISL:BSCA:1,2017-05-06T14:00:00Z,30.3288,-87.8293,17.32,1111122 
DISL,ioos:station:DISL:BSCA:1,2017-05-06T14:30:00Z,30.3288,-87.8293,17.53,1111122 
DISL,ioos:station:DISL:BSCA:1,2017-05-06T15:00:00Z,30.3288,-87.8293,17.59,1111122 
DISL,ioos:station:DISL:BSCA:1,2017-05-06T15:30:00Z,30.3288,-87.8293,17.86,1111122 
DISL,ioos:station:DISL:BSCA:1,2017-05-06T16:00:00Z,30.3288,-87.8293,18.6,1111122 
DISL,ioos:station:DISL:BSCA:1,2017-05-06T16:30:00Z,30.3288,-87.8293,19.14,1111122 
DISL,ioos:station:DISL:BSCA:1,2017-05-06T17:00:00Z,30.3288,-87.8293,19.37,1111122 
DISL,ioos:station:DISL:BSCA:1,2017-05-06T17:30:00Z,30.3288,-87.8293,19.51,1111122 
DISL,ioos:station:DISL:BSCA:1,2017-05-06T18:00:00Z,30.3288,-87.8293,19.64,1111122 
DISL,ioos:station:DISL:BSCA:1,2017-05-06T18:30:00Z,30.3288,-87.8293,20.01,1111122 
DISL,ioos:station:DISL:BSCA:1,2017-05-06T19:00:00Z,30.3288,-87.8293,20.22,1111122 
DISL,ioos:station:DISL:BSCA:1,2017-05-06T19:30:00Z,30.3288,-87.8293,20.45,1111122 
DISL,ioos:station:DISL:BSCA:1,2017-05-06T20:00:00Z,30.3288,-87.8293,20.66,1111122 
DISL,ioos:station:DISL:BSCA:1,2017-05-06T20:30:00Z,30.3288,-87.8293,20.76,1111122 
DISL,ioos:station:DISL:BSCA:1,2017-05-06T21:00:00Z,30.3288,-87.8293,21.0,1111122 
DISL,ioos:station:DISL:BSCA:1,2017-05-06T21:30:00Z,30.3288,-87.8293,21.1,1111122 
DISL,ioos:station:DISL:BSCA:1,2017-05-06T22:00:00Z,30.3288,-87.8293,21.13,1111122 
DISL,ioos:station:DISL:BSCA:1,2017-05-06T22:30:00Z,30.3288,-87.8293,21.27,1111122 
DISL,ioos:station:DISL:BSCA:1,2017-05-06T23:00:00Z,30.3288,-87.8293,21.3,1111122 
DISL,ioos:station:DISL:BSCA:1,2017-05-06T23:30:00Z,30.3288,-87.8293,21.37,1111122 